Location: *
(31.2983°S, 151.4094°E)
Time: 05:16:41
(UTC+00:00)

Cosmos 1238 Rocket - Pass Details

Date: 25 August 2019
Orbit: 374 x 1035 km, 82.9° (Epoch: 17 September)

Event Time Altitude Azimuth Distance (km) Brightness Sun altitude
Exits shadow 18:19:28 47° 201° (SSW) 1,103 4.1 -26.2°
Drops below altitude 10° 18:23:53 10° 180° (S) 2,618 6.3 -25.2°
Sets 18:26:37 0° 177° (S) 3,650 7.1 -24.6°
